Weather History for Fort Meade, MD

Change the Weather History Date:

Thursday, May 23, 2013

  Actual Average (KBWI) Record (KBWI)
Temperature  
Mean Temperature 70 °F 65 °F  
Max Temperature 78 °F 76 °F 98 °F (1925)
Min Temperature 62 °F 54 °F 39 °F (1961)
Degree Days  
Heating Degree Days 0 3  
Month to date heating degree days 115  
Since 1 July heating degree days 4730  
Cooling Degree Days 5 3  
Month to date cooling degree days 40  
Year to date cooling degree days 54  
Growing Degree Days 20 (Base 50)    
Moisture  
Dew Point 64 °F    
Average Humidity 83    
Maximum Humidity 100    
Minimum Humidity 61    
Precipitation  
Precipitation 0.00 in 0.14 in 2.40 in (1989)
Month to date precipitation 2.91  
Year to date precipitation 15.95  
Snow  
Snow 0.00 in 0.00 in - ()
Month to date snowfall 0.0  
Since 1 July snowfall 20.1  
Snow Depth -    
Sea Level Pressure  
Sea Level Pressure 29.87 in    
Wind  
Wind Speed 3 mph (SSW)    
Max Wind Speed 10 mph    
Max Gust Speed 17 mph    
Visibility 8 miles    
Events      
T = Trace of Precipitation, MM = Missing Value Source: NWS Daily Summary

Daily Weather History Graph

Daily Weather History Graph

Search for Another Location

Airport:

Trip Planner

Search our weather history database for the weather conditions in past years. The results will help you decide how hot, cold, wet, or windy it might be!

Date:

Astronomy

May. 23, 2013 Rise Set
Actual Time 5:47 AM EDT 8:20 PM EDT
Civil Twilight 5:16 AM EDT 8:51 PM EDT
Nautical Twilight 4:38 AM EDT 9:29 PM EDT
Astronomical Twilight 3:55 AM EDT 10:12 PM EDT
Moon 6:50 PM EDT (5/23) 4:30 AM EDT (5/23)
Length of Visible Light 15h 34m
Length of Day
14h 32m
Waxing Gibbous, 97% of the Moon is Illuminated
May 23
Waxing Gibbous
May 25
Full
May 31
Last Quarter
Jun 8
New
Jun 16
First Quarter

Hourly Weather History & Observations

Time (EDT) Temp. Dew Point Humidity Pressure Visibility Wind Dir Wind Speed Gust Speed Precip Events Conditions
12:00 AM 68.0 °F 62.6 °F 83% 29.93 in 10.0 mi Calm Calm - N/A   Mostly Cloudy
12:18 AM 68.0 °F 62.6 °F 83% 29.94 in 10.0 mi Calm Calm - N/A   Scattered Clouds
12:39 AM 66.2 °F 62.6 °F 88% 29.94 in 10.0 mi South 3.5 mph - N/A   Scattered Clouds
1:00 AM 66.2 °F 62.6 °F 88% 29.92 in 10.0 mi Calm Calm - N/A   Mostly Cloudy
1:18 AM 64.4 °F 62.6 °F 94% 29.91 in 10.0 mi Calm Calm - N/A   Mostly Cloudy
1:39 AM 64.4 °F 62.6 °F 94% 29.91 in 10.0 mi Calm Calm - N/A   Scattered Clouds
2:00 AM 64.4 °F 62.6 °F 94% 29.91 in 7.0 mi Calm Calm - N/A   Clear
2:18 AM 64.4 °F 62.6 °F 94% 29.90 in 10.0 mi Calm Calm - N/A   Clear
2:39 AM 62.6 °F 60.8 °F 94% 29.90 in 7.0 mi Calm Calm - N/A   Clear
3:00 AM 62.6 °F 60.8 °F 94% 29.89 in 7.0 mi Calm Calm - N/A   Clear
3:21 AM 62.6 °F 60.8 °F 94% 29.89 in 7.0 mi Calm Calm - N/A   Mostly Cloudy
3:39 AM 62.6 °F 62.6 °F 100% 29.90 in 7.0 mi Calm Calm - N/A   Scattered Clouds
4:00 AM 64.4 °F 62.6 °F 94% 29.90 in 7.0 mi Calm Calm - N/A   Mostly Cloudy
4:21 AM 64.4 °F 62.6 °F 94% 29.90 in 7.0 mi Calm Calm - N/A   Overcast
4:39 AM 64.4 °F 62.6 °F 94% 29.91 in 7.0 mi Calm Calm - N/A   Overcast
5:00 AM 64.4 °F 62.6 °F 94% 29.91 in 7.0 mi Calm Calm - N/A   Overcast
5:21 AM 64.4 °F 62.6 °F 94% 29.91 in 7.0 mi SSW 3.5 mph - N/A   Mostly Cloudy
5:39 AM 66.2 °F 64.4 °F 94% 29.91 in 7.0 mi SSW 4.6 mph - N/A   Mostly Cloudy
6:21 AM 68.0 °F 64.4 °F 88% 29.91 in 7.0 mi South 3.5 mph - N/A   Mostly Cloudy
6:39 AM 68.0 °F 64.4 °F 88% 29.91 in 7.0 mi SSW 3.5 mph - N/A   Overcast
7:00 AM 68.0 °F 66.2 °F 94% 29.91 in 10.0 mi SSW 3.5 mph - N/A   Overcast
7:21 AM 69.8 °F 66.2 °F 88% 29.91 in 10.0 mi SSW 4.6 mph - N/A   Overcast
7:39 AM 69.8 °F 66.2 °F 88% 29.92 in 10.0 mi SSW 5.8 mph - N/A   Overcast
8:00 AM 71.6 °F 68.0 °F 88% 29.91 in 10.0 mi South 5.8 mph - N/A   Mostly Cloudy
8:21 AM 71.6 °F 68.0 °F 88% 29.91 in 10.0 mi South 9.2 mph - N/A   Overcast
8:39 AM 71.6 °F 66.2 °F 83% 29.91 in 10.0 mi South 5.8 mph - N/A   Overcast
9:00 AM 71.6 °F 66.2 °F 83% 29.92 in 10.0 mi SSW 4.6 mph - N/A   Overcast
9:21 AM 71.6 °F 66.2 °F 83% 29.92 in 10.0 mi SSW 8.1 mph - N/A   Overcast
9:39 AM 73.4 °F 66.2 °F 78% 29.92 in 10.0 mi SSW 10.4 mph - N/A   Mostly Cloudy
10:00 AM 73.4 °F 64.4 °F 73% 29.91 in 10.0 mi SW 10.4 mph - N/A   Scattered Clouds
10:21 AM 73.4 °F 64.4 °F 73% 29.92 in 10.0 mi SSW 6.9 mph - N/A   Mostly Cloudy
10:39 AM 73.4 °F 64.4 °F 73% 29.92 in 10.0 mi SSW 10.4 mph 17.3 mph N/A   Mostly Cloudy
11:00 AM 73.4 °F 64.4 °F 73% 29.92 in 10.0 mi SSW 8.1 mph - N/A   Scattered Clouds
11:21 AM 75.2 °F 64.4 °F 69% 29.92 in 10.0 mi SSW 9.2 mph - N/A   Scattered Clouds
11:42 AM 75.2 °F 64.4 °F 69% 29.92 in 10.0 mi SW 8.1 mph - N/A   Mostly Cloudy
12:00 PM 73.4 °F 64.4 °F 73% 29.91 in 10.0 mi SSW 6.9 mph - N/A   Overcast
12:21 PM 77.0 °F 66.2 °F 69% 29.91 in 10.0 mi SSW 5.8 mph - N/A   Mostly Cloudy
12:42 PM 73.4 °F 66.2 °F 78% 29.90 in 5.0 mi SW 4.6 mph - N/A   Mostly Cloudy
1:00 PM 71.6 °F 68.0 °F 88% 29.90 in 7.0 mi West 3.5 mph - N/A   Mostly Cloudy
1:21 PM 73.4 °F 69.8 °F 88% 29.89 in 10.0 mi SSW 3.5 mph - N/A   Mostly Cloudy
1:42 PM 73.4 °F 69.8 °F 88% 29.88 in 10.0 mi SW 5.8 mph - N/A   Overcast
2:00 PM 73.4 °F 66.2 °F 78% 29.88 in 10.0 mi SW 5.8 mph - N/A   Overcast
2:21 PM 73.4 °F 66.2 °F 78% 29.88 in 10.0 mi SW 8.1 mph - N/A   Overcast
2:42 PM 77.0 °F 66.2 °F 69% 29.86 in 10.0 mi SW 5.8 mph - N/A   Scattered Clouds
3:00 PM 77.0 °F 64.4 °F 65% 29.85 in 10.0 mi SSW 8.1 mph - N/A   Scattered Clouds
3:21 PM 78.8 °F 64.4 °F 61% 29.84 in 10.0 mi SSW 5.8 mph - N/A   Scattered Clouds
3:42 PM 77.0 °F 64.4 °F 65% 29.83 in 10.0 mi South 5.8 mph - N/A   Mostly Cloudy
4:00 PM 77.0 °F 64.4 °F 65% 29.82 in 10.0 mi SSW 6.9 mph - N/A   Mostly Cloudy
4:21 PM 77.0 °F 64.4 °F 65% 29.81 in 10.0 mi South 4.6 mph - N/A   Mostly Cloudy
4:42 PM 77.0 °F 64.4 °F 65% 29.81 in 10.0 mi SSE 5.8 mph - N/A   Mostly Cloudy
5:00 PM 77.0 °F 64.4 °F 65% 29.80 in 10.0 mi SSE 8.1 mph - N/A   Scattered Clouds
5:21 PM 77.0 °F 64.4 °F 65% 29.80 in 10.0 mi South 6.9 mph - N/A   Mostly Cloudy
5:42 PM 75.2 °F 64.4 °F 69% 29.80 in 10.0 mi SSE 8.1 mph - N/A   Scattered Clouds
6:00 PM 75.2 °F 64.4 °F 69% 29.79 in 10.0 mi SSE 10.4 mph - N/A   Mostly Cloudy
6:21 PM 73.4 °F 64.4 °F 73% 29.79 in 10.0 mi SE 5.8 mph - N/A   Mostly Cloudy
6:42 PM 73.4 °F 66.2 °F 78% 29.78 in 10.0 mi SE 5.8 mph - N/A   Scattered Clouds
7:00 PM 73.4 °F 66.2 °F 78% 29.80 in 10.0 mi SSE 3.5 mph - N/A   Mostly Cloudy
7:21 PM 71.6 °F 66.2 °F 83% 29.80 in 10.0 mi ESE 3.5 mph - N/A   Overcast
7:42 PM 71.6 °F 66.2 °F 83% 29.81 in 10.0 mi SE 3.5 mph - N/A   Overcast
8:03 PM 71.6 °F 66.2 °F 83% 29.82 in 10.0 mi Calm Calm - N/A   Overcast
8:21 PM 69.8 °F 62.6 °F 78% 29.81 in 10.0 mi NNW 8.1 mph 17.3 mph N/A   Overcast
8:42 PM 68.0 °F 60.8 °F 78% 29.81 in 10.0 mi North 3.5 mph - N/A   Overcast
9:03 PM 68.0 °F 60.8 °F 78% 29.81 in 10.0 mi West 3.5 mph - N/A   Overcast
9:21 PM 64.4 °F 60.8 °F 88% 29.80 in 2.5 mi ESE 3.5 mph - N/A   Overcast
9:42 PM 64.4 °F 62.6 °F 94% 29.80 in 0.5 mi North 4.6 mph - N/A   Overcast
10:03 PM 64.4 °F 62.6 °F 94% 29.80 in 1.5 mi Calm Calm - N/A   Mostly Cloudy
10:21 PM 64.4 °F 62.6 °F 94% 29.80 in 10.0 mi Calm Calm - N/A   Overcast
10:42 PM 64.4 °F 62.6 °F 94% 29.81 in 0.5 mi East 5.8 mph - N/A   Overcast
11:03 PM 64.4 °F 62.6 °F 94% 29.81 in 2.0 mi Calm Calm - N/A   Overcast
11:21 PM 64.4 °F 62.6 °F 94% 29.82 in 0.5 mi WSW 5.8 mph - N/A   Overcast
11:42 PM 64.4 °F 62.6 °F 94% 29.82 in 4.0 mi SW 4.6 mph - N/A   Overcast